Location: El Bakhil
(32.7726°N, 5.5387°W)
Time: 12:47:31
(UTC+00:00)

UNISAT 6 - Visible Passes

Search period start: 03 August 2021 00:00
Search period end: 13 August 2021 00:00
Orbit: 605 x 689 km, 97.7° (Epoch: 02 August)

Date Brightness Start Highest point End Pass type
(mag) Time Alt. Az. Time Alt. Az. Time Alt. Az.
03 Aug ? 19:54:27 10° N 19:58:32 44° WNW 20:02:38 10° SSW visible
04 Aug ? 20:20:43 10° NNW 20:24:02 22° WNW 20:27:23 10° WSW visible
05 Aug ? 20:48:05 10° NW 20:49:27 11° WNW 20:50:51 10° W visible
06 Aug ? 19:34:36 10° N 19:38:53 79° WNW 19:43:14 10° SSW visible
07 Aug ? 20:00:30 10° N 20:04:27 37° WNW 20:08:28 10° SW visible
08 Aug ? 20:26:54 10° NNW 20:29:57 19° WNW 20:33:01 10° WSW visible
10 Aug ? 19:40:32 10° N 19:44:49 65° WNW 19:49:11 10° SSW visible
11 Aug ? 20:06:33 10° N 20:10:22 31° WNW 20:14:16 10° SW visible
12 Aug ? 20:33:08 10° NNW 20:35:51 16° WNW 20:38:35 10° WSW visible
